TimeEDT,TemperatureF,Dew PointF,Humidity,Sea Level PressureIn,VisibilityMPH,Wind Direction,Wind SpeedMPH,Gust SpeedMPH,PrecipitationIn,Events,Conditions,WindDirDegrees,DateUTC
12:15 AM,55.4,51.8,88,30.00,10.0,South,8.1,-,N/A,,Clear,180,2012-10-28 04:15:00
12:35 AM,55.4,51.8,88,30.00,10.0,South,6.9,-,N/A,,Mostly Cloudy,170,2012-10-28 04:35:00
12:55 AM,55.4,51.8,88,30.00,10.0,Calm,Calm,-,N/A,,Mostly Cloudy,0,2012-10-28 04:55:00
1:15 AM,55.4,51.8,88,30.01,10.0,SSE,9.2,-,N/A,,Mostly Cloudy,150,2012-10-28 05:15:00
1:35 AM,57.2,51.8,82,30.00,10.0,SE,10.4,-,N/A,,Overcast,140,2012-10-28 05:35:00
1:55 AM,55.4,50.0,82,30.00,10.0,SE,11.5,-,N/A,,Overcast,130,2012-10-28 05:55:00
2:15 AM,55.4,51.8,88,30.00,10.0,SE,13.8,-,N/A,,Overcast,130,2012-10-28 06:15:00
2:35 AM,55.4,50.0,82,29.99,10.0,SE,8.1,-,N/A,,Overcast,130,2012-10-28 06:35:00
2:55 AM,55.4,50.0,82,29.99,10.0,SE,9.2,-,N/A,,Overcast,140,2012-10-28 06:55:00
3:15 AM,55.4,50.0,82,30.00,10.0,SE,8.1,-,N/A,,Mostly Cloudy,140,2012-10-28 07:15:00
3:35 AM,55.4,50.0,82,29.99,10.0,SE,6.9,-,N/A,,Mostly Cloudy,130,2012-10-28 07:35:00
3:55 AM,55.4,48.2,77,29.99,10.0,Calm,Calm,-,N/A,,Mostly Cloudy,0,2012-10-28 07:55:00
4:15 AM,55.4,46.4,72,29.99,10.0,South,5.8,-,N/A,,Overcast,170,2012-10-28 08:15:00
4:35 AM,55.4,44.6,67,29.99,10.0,SSE,5.8,-,N/A,,Overcast,150,2012-10-28 08:35:00
4:55 AM,53.6,44.6,72,29.99,10.0,South,4.6,-,N/A,,Scattered Clouds,180,2012-10-28 08:55:00
5:15 AM,53.6,42.8,67,29.99,10.0,South,3.5,-,N/A,,Scattered Clouds,170,2012-10-28 09:15:00
5:35 AM,55.4,39.2,54,29.98,10.0,SSW,4.6,-,N/A,,Mostly Cloudy,200,2012-10-28 09:35:00
5:56 AM,53.6,39.2,58,29.98,10.0,South,4.6,-,N/A,,Overcast,170,2012-10-28 09:56:00
6:15 AM,55.4,39.2,54,29.99,10.0,South,4.6,-,N/A,,Overcast,170,2012-10-28 10:15:00
6:35 AM,53.6,39.2,58,29.99,10.0,SE,6.9,-,N/A,,Partly Cloudy,130,2012-10-28 10:35:00
6:55 AM,53.6,37.4,54,29.99,10.0,SSE,8.1,-,N/A,,Clear,160,2012-10-28 10:55:00
7:15 AM,53.6,37.4,54,29.99,10.0,SE,5.8,-,N/A,,Clear,130,2012-10-28 11:15:00
7:35 AM,53.6,35.6,51,30.00,10.0,SE,5.8,-,N/A,,Clear,130,2012-10-28 11:35:00
7:55 AM,53.6,35.6,51,30.01,10.0,South,4.6,-,N/A,,Clear,170,2012-10-28 11:55:00
8:15 AM,53.6,33.8,47,30.00,10.0,ESE,5.8,-,N/A,,Clear,120,2012-10-28 12:15:00
8:35 AM,53.6,33.8,47,30.00,10.0,SE,5.8,-,N/A,,Clear,140,2012-10-28 12:35:00
8:55 AM,53.6,33.8,47,30.01,10.0,South,3.5,-,N/A,,Clear,170,2012-10-28 12:55:00
9:15 AM,53.6,33.8,47,30.02,10.0,SSE,6.9,-,N/A,,Clear,150,2012-10-28 13:15:00
9:35 AM,53.6,35.6,51,30.01,10.0,SSE,4.6,-,N/A,,Clear,150,2012-10-28 13:35:00
9:55 AM,55.4,33.8,44,30.01,10.0,SE,6.9,-,N/A,,Clear,140,2012-10-28 13:55:00
10:15 AM,55.4,35.6,47,30.01,10.0,SSE,6.9,-,N/A,,Clear,160,2012-10-28 14:15:00
10:35 AM,57.2,35.6,44,30.00,10.0,SE,4.6,-,N/A,,Clear,130,2012-10-28 14:35:00
10:55 AM,57.2,37.4,48,30.00,10.0,ESE,9.2,-,N/A,,Clear,120,2012-10-28 14:55:00
11:15 AM,57.2,37.4,48,29.99,10.0,ENE,6.9,-,N/A,,Clear,70,2012-10-28 15:15:00
11:35 AM,57.2,37.4,48,29.99,10.0,East,9.2,17.3,N/A,,Clear,80,2012-10-28 15:35:00
11:55 AM,57.2,37.4,48,29.98,10.0,East,11.5,17.3,N/A,,Clear,90,2012-10-28 15:55:00
12:16 PM,57.2,39.2,51,29.96,10.0,ENE,12.7,19.6,N/A,,Clear,70,2012-10-28 16:16:00
12:35 PM,57.2,39.2,51,29.97,10.0,ESE,9.2,20.7,N/A,,Clear,110,2012-10-28 16:35:00
12:55 PM,59.0,39.2,48,29.97,10.0,East,12.7,19.6,N/A,,Clear,90,2012-10-28 16:55:00
1:15 PM,59.0,41.0,51,29.96,10.0,East,10.4,-,N/A,,Clear,80,2012-10-28 17:15:00
1:35 PM,60.8,41.0,48,29.95,10.0,East,11.5,16.1,N/A,,Clear,100,2012-10-28 17:35:00
1:55 PM,60.8,41.0,48,29.94,10.0,ESE,8.1,-,N/A,,Clear,120,2012-10-28 17:55:00
2:15 PM,59.0,41.0,51,29.92,10.0,East,5.8,16.1,N/A,,Partly Cloudy,90,2012-10-28 18:15:00
2:35 PM,59.0,41.0,51,29.91,10.0,ENE,10.4,-,N/A,,Clear,70,2012-10-28 18:35:00
2:55 PM,59.0,41.0,51,29.91,10.0,East,8.1,-,N/A,,Clear,100,2012-10-28 18:55:00
3:15 PM,59.0,42.8,55,29.90,10.0,ENE,12.7,19.6,N/A,,Partly Cloudy,70,2012-10-28 19:15:00
3:35 PM,59.0,41.0,51,29.89,10.0,ENE,6.9,-,N/A,,Clear,70,2012-10-28 19:35:00
3:55 PM,59.0,41.0,51,29.90,10.0,East,11.5,17.3,N/A,,Clear,100,2012-10-28 19:55:00
4:15 PM,57.2,42.8,59,29.89,10.0,East,11.5,20.7,N/A,,Clear,100,2012-10-28 20:15:00
4:35 PM,57.2,41.0,55,29.89,10.0,East,6.9,-,N/A,,Clear,100,2012-10-28 20:35:00
4:55 PM,57.2,41.0,55,29.89,10.0,East,6.9,-,N/A,,Clear,80,2012-10-28 20:55:00
5:15 PM,57.2,42.8,59,29.89,10.0,ENE,8.1,-,N/A,,Clear,70,2012-10-28 21:15:00
5:35 PM,57.2,42.8,59,29.88,10.0,ESE,8.1,-,N/A,,Clear,110,2012-10-28 21:35:00
5:55 PM,57.2,42.8,59,29.88,10.0,East,10.4,-,N/A,,Clear,80,2012-10-28 21:55:00
6:15 PM,55.4,42.8,63,29.89,10.0,East,4.6,-,N/A,,Clear,90,2012-10-28 22:15:00
6:35 PM,55.4,42.8,63,29.89,10.0,SSE,3.5,-,N/A,,Clear,150,2012-10-28 22:35:00
6:55 PM,55.4,42.8,63,29.89,10.0,ESE,5.8,-,N/A,,Clear,110,2012-10-28 22:55:00
7:15 PM,53.6,42.8,67,29.90,10.0,SE,4.6,-,N/A,,Clear,140,2012-10-28 23:15:00
7:35 PM,53.6,42.8,67,29.91,10.0,SSE,3.5,-,N/A,,Mostly Cloudy,150,2012-10-28 23:35:00
7:55 PM,53.6,44.6,72,29.90,10.0,ESE,6.9,-,N/A,,Overcast,120,2012-10-28 23:55:00
8:15 PM,53.6,42.8,67,29.90,10.0,SSE,6.9,-,N/A,,Overcast,160,2012-10-29 00:15:00
8:55 PM,53.6,42.8,67,29.89,10.0,Calm,Calm,-,N/A,,Overcast,0,2012-10-29 00:55:00
9:15 PM,53.6,44.6,72,29.89,10.0,SW,3.5,-,N/A,,Overcast,220,2012-10-29 01:15:00
9:35 PM,53.6,44.6,72,29.89,10.0,East,5.8,-,N/A,,Overcast,90,2012-10-29 01:35:00
9:55 PM,53.6,44.6,72,29.89,10.0,East,4.6,-,N/A,,Overcast,80,2012-10-29 01:55:00
10:15 PM,53.6,42.8,67,29.89,10.0,ENE,10.4,16.1,N/A,,Overcast,70,2012-10-29 02:15:00
10:35 PM,51.8,41.0,67,29.88,10.0,East,12.7,23.0,N/A,,Mostly Cloudy,80,2012-10-29 02:35:00
10:55 PM,51.8,42.8,71,29.87,10.0,ENE,11.5,23.0,N/A,,Overcast,70,2012-10-29 02:55:00
11:16 PM,51.8,42.8,71,29.86,10.0,SE,5.8,-,N/A,,Overcast,130,2012-10-29 03:16:00
11:35 PM,51.8,42.8,71,29.86,10.0,Calm,Calm,-,N/A,,Overcast,0,2012-10-29 03:35:00
11:55 PM,51.8,42.8,71,29.85,10.0,NE,5.8,-,N/A,,Overcast,40,2012-10-29 03:55:00